Погода в Каргашине

Россия / Республика Мордовия     54°12′02″N   42°36′53″E
темп.,
°C
ветер,
м/с
пор.,
м/с
влажн.,
%
обл.,
%
осадки,
мм/ч
давл.,
гПа
погр.,
м
21 апреля, ср
ср2100:00+5вюв82092100 6.4 10111247
03:00+6юв92089100 9.6 10071119
06:00+7ююв91787100 0.1 10061046
09:00+8юв81587100 0.2 10081040
12:00+9ююв61288100 0.3 1008829
15:00+10ю51086100 1.4 10081025
18:00+5зюз4994100 2.8 1011653
21:00+5юз4988100 3.0 1015691
22 апреля, чт
чт2200:00+6ююз3987100 0.0 1016376
03:00+5ююв2792100 0.0 1016193
06:00+6ю389662 0.2 1017399
09:00+8юз468062 0.5 1019853
12:00+9юз4667100 0.3 10201308
15:00+12юз465566 0.3 10201641
18:00+11ююз2661100 0.0 1020220
21:00+8ю367671 0.0 1021109
23 апреля, пт
пт2300:00+7ююв378247 0.0 1021124
03:00+7ю3108081 0.0 1021203
06:00+9ю3107495 0.0 1021220
09:00+13ю475848 0.0 1021437
12:00+16ю463996 0.0 10202356
15:00+15ю3547100 0.0 10191870
18:00+14юв365718 0.0 1018286
21:00+9юв39755 0.1 1017174
24 апреля, сб
сб2400:00+7ююв388363 0.0 1016145
03:00+7юв399345 0.2 1013222
06:00+8юв412865 0.0 1012363
09:00+13ю596399 0.1 1010836
12:00+15ю61057100 1.3 10071730
15:00+6з6987100 3.0 1008551
18:00+5з3794100 4.7 1009689
21:00+4зюз3794100 5.2 1009209
25 апреля, вс
вс2500:00+3юз39935 0.1 1009201
03:00+2зюз310865 0.1 1010261
06:00+2зюз3108713 0.0 1011336
09:00+6зюз59655 0.0 10111228
12:00+8зюз695099 0.4 10122054
15:00+9зюз695179 1.4 10122049
18:00+7зюз595821 1.0 10121054
21:00+3юз398298 1.0 1014275